Time,TemperatureF,DewpointF,PressureIn,WindDirection,WindDirectionDegrees,WindSpeedMPH,WindSpeedGustMPH,Humidity,HourlyPrecipIn,Conditions,Clouds,dailyrainin,SolarRadiationWatts/m^2,SoftwareType,DateUTC
2013-04-20 00:02:00,28.0,17.0,-100.00,NNW,328,8.0,19.0,64,0.00,,,0.03,0.000000,,2013-04-20 05:02:00,
2013-04-20 00:32:00,27.0,16.0,-100.00,NNW,338,8.0,18.0,64,0.00,,,0.03,0.000000,,2013-04-20 05:32:00,
2013-04-20 00:43:00,27.0,16.0,-100.00,NNW,338,8.0,18.0,64,0.00,,,0.03,0.000000,,2013-04-20 05:43:00,
2013-04-20 00:52:00,27.0,16.0,-100.00,NNW,338,8.0,18.0,64,0.00,,,0.03,0.000000,,2013-04-20 05:52:00,
2013-04-20 01:02:00,27.0,16.0,-100.00,NNW,338,8.0,18.0,64,0.00,,,0.03,0.000000,,2013-04-20 06:02:00,
2013-04-20 01:32:00,26.0,17.0,-100.00,NW,313,5.0,15.0,68,0.00,,,0.03,0.000000,,2013-04-20 06:32:00,
2013-04-20 01:42:00,26.0,17.0,-100.00,NW,313,5.0,15.0,68,0.00,,,0.03,0.000000,,2013-04-20 06:42:00,
2013-04-20 01:52:00,26.0,17.0,-100.00,NW,313,5.0,15.0,68,0.00,,,0.03,0.000000,,2013-04-20 06:52:00,
2013-04-20 02:01:00,26.0,17.0,-100.00,NW,313,5.0,15.0,68,0.00,,,0.03,0.000000,,2013-04-20 07:01:00,
2013-04-20 02:32:00,25.0,17.0,-100.00,NW,315,4.0,10.0,70,0.00,,,-99.99,0.000000,,2013-04-20 07:32:00,
2013-04-20 02:42:00,25.0,17.0,-100.00,NW,315,4.0,10.0,70,0.00,,,-99.99,0.000000,,2013-04-20 07:42:00,
2013-04-20 02:52:00,25.0,17.0,-100.00,NW,315,4.0,10.0,70,0.00,,,-99.99,0.000000,,2013-04-20 07:52:00,
2013-04-20 03:02:00,25.0,17.0,-100.00,NW,315,4.0,10.0,70,0.00,,,-99.99,0.000000,,2013-04-20 08:02:00,
2013-04-20 03:32:00,23.0,17.0,-100.00,NW,310,2.0,5.0,79,0.00,,,0.01,0.000000,,2013-04-20 08:32:00,
2013-04-20 03:42:00,23.0,17.0,-100.00,NW,310,2.0,5.0,79,0.00,,,0.01,0.000000,,2013-04-20 08:42:00,
2013-04-20 03:52:00,23.0,17.0,-100.00,NW,310,2.0,5.0,79,0.00,,,0.01,0.000000,,2013-04-20 08:52:00,
2013-04-20 04:01:00,23.0,17.0,-100.00,NW,310,2.0,5.0,79,0.00,,,0.01,0.000000,,2013-04-20 09:01:00,
2013-04-20 04:33:00,22.0,18.0,-100.00,NW,312,3.0,5.0,84,0.00,,,0.01,0.000000,,2013-04-20 09:33:00,
2013-04-20 04:43:00,22.0,18.0,-100.00,NW,312,3.0,5.0,84,0.00,,,0.01,0.000000,,2013-04-20 09:43:00,
2013-04-20 04:53:00,22.0,18.0,-100.00,NW,312,3.0,5.0,84,0.00,,,0.01,0.000000,,2013-04-20 09:53:00,
2013-04-20 05:03:00,22.0,18.0,-100.00,NW,312,3.0,5.0,84,0.00,,,0.01,0.000000,,2013-04-20 10:03:00,
2013-04-20 05:33:00,20.0,16.0,-100.00,WNW,301,3.0,4.0,85,0.00,,,0.01,0.000000,,2013-04-20 10:33:00,
2013-04-20 05:42:00,20.0,16.0,-100.00,WNW,301,3.0,4.0,85,0.00,,,0.01,0.000000,,2013-04-20 10:42:00,
2013-04-20 05:53:00,20.0,16.0,-100.00,WNW,301,3.0,4.0,85,0.00,,,0.01,0.000000,,2013-04-20 10:53:00,
2013-04-20 06:02:00,20.0,16.0,-100.00,WNW,301,3.0,4.0,85,0.00,,,0.01,0.000000,,2013-04-20 11:02:00,
2013-04-20 06:32:00,15.0,12.0,-100.00,SW,227,3.0,4.0,88,0.00,,,0.01,0.000000,,2013-04-20 11:32:00,
2013-04-20 06:42:00,15.0,12.0,-100.00,SW,227,3.0,4.0,88,0.00,,,0.01,0.000000,,2013-04-20 11:42:00,
2013-04-20 06:53:00,15.0,12.0,-100.00,SW,227,3.0,4.0,88,0.00,,,0.01,0.000000,,2013-04-20 11:53:00,
2013-04-20 07:02:00,15.0,12.0,-100.00,SW,227,3.0,4.0,88,0.00,,,0.01,0.000000,,2013-04-20 12:02:00,
2013-04-20 07:32:00,20.0,18.0,-100.00,South,187,2.0,2.0,92,0.00,,,0.01,55.000000,,2013-04-20 12:32:00,
2013-04-20 07:42:00,20.0,18.0,-100.00,South,187,2.0,2.0,92,0.00,,,0.01,55.000000,,2013-04-20 12:42:00,
2013-04-20 07:52:00,20.0,18.0,-100.00,South,187,2.0,2.0,92,0.00,,,0.01,55.000000,,2013-04-20 12:52:00,
2013-04-20 08:02:00,20.0,18.0,-100.00,South,187,2.0,2.0,92,0.00,,,0.01,55.000000,,2013-04-20 13:02:00,
2013-04-20 08:32:00,29.0,20.0,-100.00,NW,322,7.0,12.0,69,0.00,,,0.01,232.000000,,2013-04-20 13:32:00,
2013-04-20 08:42:00,29.0,20.0,-100.00,NW,322,7.0,12.0,69,0.00,,,0.01,232.000000,,2013-04-20 13:42:00,
2013-04-20 08:52:00,29.0,20.0,-100.00,NW,322,7.0,12.0,69,0.00,,,0.01,232.000000,,2013-04-20 13:52:00,
2013-04-20 09:02:00,29.0,20.0,-100.00,NW,322,7.0,12.0,69,0.00,,,0.01,232.000000,,2013-04-20 14:02:00,
2013-04-20 09:32:00,31.0,13.0,-100.00,NNW,335,10.0,18.0,47,0.00,,,0.00,422.000000,,2013-04-20 14:32:00,
2013-04-20 09:42:00,31.0,13.0,-100.00,NNW,335,10.0,18.0,47,0.00,,,0.00,422.000000,,2013-04-20 14:42:00,
2013-04-20 09:52:00,31.0,13.0,-100.00,NNW,335,10.0,18.0,47,0.00,,,0.00,422.000000,,2013-04-20 14:52:00,
2013-04-20 10:01:00,31.0,13.0,-100.00,NNW,335,10.0,18.0,47,0.00,,,0.00,422.000000,,2013-04-20 15:01:00,
2013-04-20 10:34:00,33.0,9.0,-100.00,NNW,336,9.0,19.0,36,0.00,,,0.00,601.000000,,2013-04-20 15:34:00,
2013-04-20 10:43:00,33.0,9.0,-100.00,NNW,336,9.0,19.0,36,0.00,,,0.00,601.000000,,2013-04-20 15:43:00,
2013-04-20 10:53:00,33.0,9.0,-100.00,NNW,336,9.0,19.0,36,0.00,,,0.00,601.000000,,2013-04-20 15:53:00,
2013-04-20 11:03:00,33.0,9.0,-100.00,NNW,336,9.0,19.0,36,0.00,,,0.00,601.000000,,2013-04-20 16:03:00,
2013-04-20 11:33:00,35.0,8.0,-100.00,NW,322,9.0,20.0,32,0.00,,,0.00,734.000000,,2013-04-20 16:33:00,
2013-04-20 11:42:00,35.0,8.0,-100.00,NW,322,9.0,20.0,32,0.00,,,0.00,734.000000,,2013-04-20 16:42:00,
2013-04-20 11:53:00,35.0,8.0,-100.00,NW,322,9.0,20.0,32,0.00,,,0.00,734.000000,,2013-04-20 16:53:00,
2013-04-20 12:02:00,35.0,8.0,-100.00,NW,322,9.0,20.0,32,0.00,,,0.00,734.000000,,2013-04-20 17:02:00,
2013-04-20 12:33:00,37.0,8.0,-100.00,WNW,302,9.0,19.0,29,0.00,,,0.00,842.000000,,2013-04-20 17:33:00,
2013-04-20 12:42:00,37.0,8.0,-100.00,WNW,302,9.0,19.0,29,0.00,,,0.00,842.000000,,2013-04-20 17:42:00,
2013-04-20 12:52:00,37.0,8.0,-100.00,WNW,302,9.0,19.0,29,0.00,,,0.00,842.000000,,2013-04-20 17:52:00,
2013-04-20 13:02:00,37.0,8.0,-100.00,WNW,302,9.0,19.0,29,0.00,,,0.00,842.000000,,2013-04-20 18:02:00,
2013-04-20 13:32:00,39.0,9.0,-100.00,NW,323,8.0,18.0,28,0.00,,,0.00,888.000000,,2013-04-20 18:32:00,
2013-04-20 13:42:00,39.0,9.0,-100.00,NW,323,8.0,18.0,28,0.00,,,0.00,888.000000,,2013-04-20 18:42:00,
2013-04-20 13:52:00,39.0,9.0,-100.00,NW,323,8.0,18.0,28,0.00,,,0.00,888.000000,,2013-04-20 18:52:00,
2013-04-20 14:02:00,39.0,9.0,-100.00,NW,323,8.0,18.0,28,0.00,,,0.00,888.000000,,2013-04-20 19:02:00,
2013-04-20 14:32:00,40.0,6.0,-100.00,NW,325,9.0,19.0,24,0.00,,,0.00,875.000000,,2013-04-20 19:32:00,
2013-04-20 14:42:00,40.0,6.0,-100.00,NW,325,9.0,19.0,24,0.00,,,0.00,875.000000,,2013-04-20 19:42:00,
2013-04-20 14:52:00,40.0,6.0,-100.00,NW,325,9.0,19.0,24,0.00,,,0.00,875.000000,,2013-04-20 19:52:00,
2013-04-20 15:02:00,40.0,6.0,-100.00,NW,325,9.0,19.0,24,0.00,,,0.00,875.000000,,2013-04-20 20:02:00,
2013-04-20 15:32:00,42.0,8.0,-100.00,NNW,332,8.0,17.0,24,0.00,,,0.00,806.000000,,2013-04-20 20:32:00,
2013-04-20 15:42:00,42.0,8.0,-100.00,NNW,332,8.0,17.0,24,0.00,,,0.00,806.000000,,2013-04-20 20:42:00,
2013-04-20 15:52:00,42.0,8.0,-100.00,NNW,332,8.0,17.0,24,0.00,,,0.00,806.000000,,2013-04-20 20:52:00,
2013-04-20 16:01:00,42.0,8.0,-100.00,NNW,332,8.0,17.0,24,0.00,,,0.00,806.000000,,2013-04-20 21:01:00,
2013-04-20 16:33:00,43.0,10.0,-100.00,NNW,334,6.0,15.0,26,0.00,,,-99.99,686.000000,,2013-04-20 21:33:00,
2013-04-20 16:43:00,43.0,10.0,-100.00,NNW,334,6.0,15.0,26,0.00,,,-99.99,686.000000,,2013-04-20 21:43:00,
2013-04-20 16:53:00,43.0,10.0,-100.00,NNW,334,6.0,15.0,26,0.00,,,-99.99,686.000000,,2013-04-20 21:53:00,
2013-04-20 17:02:00,43.0,10.0,-100.00,NNW,334,6.0,15.0,26,0.00,,,-99.99,686.000000,,2013-04-20 22:02:00,
2013-04-20 17:33:00,43.0,9.0,-100.00,WNW,303,5.0,13.0,24,0.00,,,0.00,528.000000,,2013-04-20 22:33:00,
2013-04-20 17:42:00,43.0,9.0,-100.00,WNW,303,5.0,13.0,24,0.00,,,0.00,528.000000,,2013-04-20 22:42:00,
2013-04-20 17:53:00,43.0,9.0,-100.00,WNW,303,5.0,13.0,24,0.00,,,0.00,528.000000,,2013-04-20 22:53:00,
2013-04-20 18:02:00,43.0,9.0,-100.00,WNW,303,5.0,13.0,24,0.00,,,0.00,528.000000,,2013-04-20 23:02:00,
2013-04-20 18:32:00,43.0,9.0,-100.00,NNW,328,6.0,11.0,24,0.00,,,0.00,344.000000,,2013-04-20 23:32:00,
2013-04-20 18:42:00,43.0,9.0,-100.00,NNW,328,6.0,11.0,24,0.00,,,0.00,344.000000,,2013-04-20 23:42:00,
2013-04-20 18:53:00,43.0,9.0,-100.00,NNW,328,6.0,11.0,24,0.00,,,0.00,344.000000,,2013-04-20 23:53:00,
2013-04-20 19:01:00,43.0,9.0,-100.00,NNW,328,6.0,11.0,24,0.00,,,0.00,344.000000,,2013-04-21 00:01:00,
2013-04-20 20:32:00,33.0,9.0,-100.00,NE,49,3.0,7.0,36,-99.99,,,0.00,11.000000,,2013-04-21 01:32:00,
2013-04-20 20:42:00,33.0,9.0,-100.00,NE,49,3.0,7.0,36,-99.99,,,0.00,11.000000,,2013-04-21 01:42:00,
2013-04-20 20:52:00,33.0,9.0,-100.00,NE,49,3.0,7.0,36,-99.99,,,0.00,11.000000,,2013-04-21 01:52:00,
2013-04-20 21:02:00,33.0,9.0,-100.00,NE,49,3.0,7.0,36,-99.99,,,0.00,11.000000,,2013-04-21 02:02:00,
2013-04-20 21:32:00,26.0,12.0,-100.00,ENE,77,1.0,4.0,54,0.00,,,0.00,0.000000,,2013-04-21 02:32:00,
2013-04-20 21:42:00,26.0,12.0,-100.00,ENE,77,1.0,4.0,54,0.00,,,0.00,0.000000,,2013-04-21 02:42:00,
2013-04-20 21:52:00,26.0,12.0,-100.00,ENE,77,1.0,4.0,54,0.00,,,0.00,0.000000,,2013-04-21 02:52:00,
2013-04-20 22:01:00,26.0,12.0,-100.00,ENE,77,1.0,4.0,54,0.00,,,0.00,0.000000,,2013-04-21 03:01:00,
2013-04-20 22:33:00,24.0,15.0,-100.00,NE,42,2.0,4.0,69,0.00,,,0.00,0.000000,,2013-04-21 03:33:00,
2013-04-20 22:42:00,24.0,15.0,-100.00,NE,42,2.0,4.0,69,0.00,,,0.00,0.000000,,2013-04-21 03:42:00,
2013-04-20 22:52:00,24.0,15.0,-100.00,NE,42,2.0,4.0,69,0.00,,,0.00,0.000000,,2013-04-21 03:52:00,
2013-04-20 23:02:00,24.0,15.0,-100.00,NE,42,2.0,4.0,69,0.00,,,0.00,0.000000,,2013-04-21 04:02:00,
2013-04-20 23:33:00,23.0,18.0,-100.00,ENE,76,2.0,3.0,80,0.00,,,0.00,0.000000,,2013-04-21 04:33:00,
2013-04-20 23:42:00,23.0,18.0,-100.00,ENE,76,2.0,3.0,80,0.00,,,0.00,0.000000,,2013-04-21 04:42:00,
2013-04-20 23:53:00,23.0,18.0,-100.00,ENE,76,2.0,3.0,80,0.00,,,0.00,0.000000,,2013-04-21 04:53:00,